Time,TemperatureF,DewpointF,PressureIn,WindDirection,WindDirectionDegrees,WindSpeedMPH,WindSpeedGustMPH,Humidity,HourlyPrecipIn,Conditions,Clouds,dailyrainin,SoftwareType,DateUTC
2013-07-09 00:01:00,64.7,64.2,30.05,ENE,69,0.0,0.0,98,0.00,,,0.00,WUHU216PEETBRO,2013-07-09 04:01:00,
2013-07-09 00:06:00,65.2,64.7,30.05,NNE,12,0.3,2.5,98,0.00,,,0.00,WUHU216PEETBRO,2013-07-09 04:06:00,
2013-07-09 00:11:00,65.0,64.5,30.05,NE,37,0.0,2.7,98,0.00,,,0.00,WUHU216PEETBRO,2013-07-09 04:11:00,
2013-07-09 00:16:00,64.5,64.0,30.04,NE,37,0.0,2.7,98,0.00,,,0.00,WUHU216PEETBRO,2013-07-09 04:16:00,
2013-07-09 00:21:00,64.7,64.2,30.05,NE,37,0.0,2.0,98,0.00,,,0.00,WUHU216PEETBRO,2013-07-09 04:21:00,
2013-07-09 00:26:00,64.7,64.2,30.05,NE,37,0.0,0.0,98,0.00,,,0.00,WUHU216PEETBRO,2013-07-09 04:26:00,
2013-07-09 00:31:00,64.7,64.2,30.05,NE,37,0.0,0.0,98,0.00,,,0.00,WUHU216PEETBRO,2013-07-09 04:31:00,
2013-07-09 00:36:00,65.0,64.5,30.05,NE,37,0.0,0.0,98,0.00,,,0.00,WUHU216PEETBRO,2013-07-09 04:36:00,
2013-07-09 00:41:00,64.8,64.3,30.04,NE,37,0.0,0.0,98,0.00,,,0.00,WUHU216PEETBRO,2013-07-09 04:41:00,
2013-07-09 00:46:00,64.8,64.3,30.05,NE,37,0.0,0.0,98,0.00,,,0.00,WUHU216PEETBRO,2013-07-09 04:46:00,
2013-07-09 00:51:00,64.5,64.0,30.04,NE,37,0.0,0.0,98,0.00,,,0.00,WUHU216PEETBRO,2013-07-09 04:51:00,
2013-07-09 00:56:00,64.1,63.6,30.04,NE,37,0.0,0.0,98,0.00,,,0.00,WUHU216PEETBRO,2013-07-09 04:56:00,
2013-07-09 01:01:00,64.8,64.3,30.05,ENE,78,0.6,1.7,98,0.00,,,0.00,WUHU216PEETBRO,2013-07-09 05:01:00,
2013-07-09 01:06:00,64.7,64.2,30.05,ENE,78,0.0,1.7,98,0.00,,,0.00,WUHU216PEETBRO,2013-07-09 05:06:00,
2013-07-09 01:11:00,64.6,64.1,30.04,NNE,16,0.0,1.9,98,0.00,,,0.00,WUHU216PEETBRO,2013-07-09 05:11:00,
2013-07-09 01:16:00,64.8,64.3,30.04,NNE,16,0.0,1.9,98,0.00,,,0.00,WUHU216PEETBRO,2013-07-09 05:16:00,
2013-07-09 01:22:00,64.2,63.7,30.04,NNE,21,1.9,2.3,98,0.00,,,0.00,WUHU216PEETBRO,2013-07-09 05:22:00,
2013-07-09 01:27:00,63.8,63.3,30.04,NE,36,0.0,2.3,98,0.00,,,0.00,WUHU216PEETBRO,2013-07-09 05:27:00,
2013-07-09 01:32:00,64.1,63.6,30.04,NE,36,0.0,1.9,98,0.00,,,0.00,WUHU216PEETBRO,2013-07-09 05:32:00,
2013-07-09 01:36:00,64.5,64.0,30.04,North,6,1.7,4.0,98,0.00,,,0.00,WUHU216PEETBRO,2013-07-09 05:36:00,
2013-07-09 01:41:00,64.7,64.2,30.04,North,352,0.0,4.0,98,0.00,,,0.00,WUHU216PEETBRO,2013-07-09 05:41:00,
2013-07-09 01:47:00,64.8,64.2,30.04,ENE,60,2.7,5.5,98,0.00,,,0.00,WUHU216PEETBRO,2013-07-09 05:47:00,
2013-07-09 01:52:00,64.6,64.1,30.04,NNE,28,0.0,5.5,98,0.00,,,0.00,WUHU216PEETBRO,2013-07-09 05:52:00,
2013-07-09 01:57:00,64.3,63.7,30.04,NNE,15,2.7,6.0,98,0.00,,,0.00,WUHU216PEETBRO,2013-07-09 05:57:00,
2013-07-09 02:01:00,63.8,63.3,30.04,NNE,22,0.6,6.0,98,0.00,,,0.00,WUHU216PEETBRO,2013-07-09 06:01:00,
2013-07-09 02:06:00,64.4,63.9,30.04,North,357,5.3,6.2,98,0.00,,,0.00,WUHU216PEETBRO,2013-07-09 06:06:00,
2013-07-09 02:11:00,64.2,63.6,30.04,East,88,2.9,7.0,98,0.00,,,0.00,WUHU216PEETBRO,2013-07-09 06:11:00,
2013-07-09 02:16:00,63.8,63.3,30.04,NNE,28,4.9,7.0,98,0.00,,,0.00,WUHU216PEETBRO,2013-07-09 06:16:00,
2013-07-09 02:21:00,63.6,63.1,30.04,North,6,0.0,5.5,98,0.00,,,0.00,WUHU216PEETBRO,2013-07-09 06:21:00,
2013-07-09 02:26:00,64.2,63.7,30.04,NE,54,0.0,4.4,98,0.00,,,0.00,WUHU216PEETBRO,2013-07-09 06:26:00,
2013-07-09 02:31:00,64.1,63.6,30.04,North,352,0.0,3.1,98,0.00,,,0.00,WUHU216PEETBRO,2013-07-09 06:31:00,
2013-07-09 02:36:00,63.6,63.0,30.04,North,352,0.0,1.9,98,0.00,,,0.00,WUHU216PEETBRO,2013-07-09 06:36:00,
2013-07-09 02:41:00,64.2,63.6,30.03,NNE,26,0.0,2.7,98,0.00,,,0.00,WUHU216PEETBRO,2013-07-09 06:41:00,
2013-07-09 02:47:00,63.9,63.3,30.03,NNE,30,0.0,2.7,98,0.00,,,0.00,WUHU216PEETBRO,2013-07-09 06:47:00,
2013-07-09 02:52:00,64.2,63.6,30.03,NNE,30,0.0,1.6,98,0.00,,,0.00,WUHU216PEETBRO,2013-07-09 06:52:00,
2013-07-09 02:57:00,64.2,63.6,30.03,NE,49,0.0,1.4,98,0.00,,,0.00,WUHU216PEETBRO,2013-07-09 06:57:00,
2013-07-09 03:01:00,64.0,63.5,30.03,NE,49,0.0,1.4,98,0.00,,,0.00,WUHU216PEETBRO,2013-07-09 07:01:00,
2013-07-09 03:06:00,63.9,63.4,30.03,East,80,0.0,2.5,98,0.00,,,0.00,WUHU216PEETBRO,2013-07-09 07:06:00,
2013-07-09 03:07:00,63.9,63.4,30.03,East,80,0.0,2.5,98,0.00,,,0.00,WUHU216PEETBRO,2013-07-09 07:07:00,
2013-07-09 03:12:00,64.1,63.6,30.04,East,80,0.0,2.5,98,0.00,,,0.00,WUHU216PEETBRO,2013-07-09 07:12:00,
2013-07-09 03:16:00,63.8,63.3,30.04,East,80,0.0,0.0,98,0.00,,,0.00,WUHU216PEETBRO,2013-07-09 07:16:00,
2013-07-09 03:21:00,63.8,63.3,30.04,East,80,0.0,0.0,98,0.00,,,0.00,WUHU216PEETBRO,2013-07-09 07:21:00,
2013-07-09 03:26:00,63.8,63.3,30.04,ENE,63,0.0,2.1,98,0.00,,,0.00,WUHU216PEETBRO,2013-07-09 07:26:00,
2013-07-09 03:31:00,63.9,63.4,30.03,ENE,57,0.0,2.1,98,0.00,,,0.00,WUHU216PEETBRO,2013-07-09 07:31:00,
2013-07-09 03:36:00,64.0,63.5,30.03,ENE,57,0.0,2.1,98,0.00,,,0.00,WUHU216PEETBRO,2013-07-09 07:36:00,
2013-07-09 03:42:00,64.1,63.6,30.03,East,81,2.9,3.1,98,0.00,,,0.00,WUHU216PEETBRO,2013-07-09 07:42:00,
2013-07-09 03:47:00,63.8,63.3,30.03,ENE,71,0.0,3.9,98,0.00,,,0.00,WUHU216PEETBRO,2013-07-09 07:47:00,
2013-07-09 03:52:00,63.9,63.4,30.03,ENE,71,0.0,3.9,98,0.00,,,0.00,WUHU216PEETBRO,2013-07-09 07:52:00,
2013-07-09 03:57:00,64.3,63.8,30.03,ENE,71,0.0,3.6,98,0.00,,,0.00,WUHU216PEETBRO,2013-07-09 07:57:00,
2013-07-09 04:02:00,63.4,62.9,30.03,ENE,71,0.0,3.6,98,0.00,,,0.00,WUHU216PEETBRO,2013-07-09 08:02:00,
2013-07-09 04:07:00,63.5,63.0,30.04,ENE,71,0.0,0.0,98,0.00,,,0.00,WUHU216PEETBRO,2013-07-09 08:07:00,
2013-07-09 04:12:00,63.9,63.4,30.04,ENE,71,0.0,0.0,98,0.00,,,0.00,WUHU216PEETBRO,2013-07-09 08:12:00,
2013-07-09 04:17:00,64.1,63.6,30.04,ENE,70,1.2,3.2,98,0.00,,,0.00,WUHU216PEETBRO,2013-07-09 08:17:00,
2013-07-09 04:22:00,64.0,63.5,30.04,ENE,63,0.0,3.2,98,0.00,,,0.00,WUHU216PEETBRO,2013-07-09 08:22:00,
2013-07-09 04:27:00,63.8,63.3,30.04,ENE,63,0.0,0.9,98,0.00,,,0.00,WUHU216PEETBRO,2013-07-09 08:27:00,
2013-07-09 04:32:00,64.2,63.5,30.04,ENE,64,0.0,4.2,98,0.00,,,0.00,WUHU216PEETBRO,2013-07-09 08:32:00,
2013-07-09 04:37:00,64.1,63.5,30.04,East,83,2.6,4.6,98,0.00,,,0.00,WUHU216PEETBRO,2013-07-09 08:37:00,
2013-07-09 04:42:00,63.5,62.9,30.04,North,6,0.0,5.2,98,0.00,,,0.00,WUHU216PEETBRO,2013-07-09 08:42:00,
2013-07-09 04:47:00,63.8,63.2,30.04,NNE,23,0.0,5.2,98,0.00,,,0.00,WUHU216PEETBRO,2013-07-09 08:47:00,
2013-07-09 04:52:00,63.2,62.6,30.04,East,87,1.6,3.8,98,0.00,,,0.00,WUHU216PEETBRO,2013-07-09 08:52:00,
2013-07-09 04:57:00,63.7,63.1,30.04,North,4,0.0,2.3,98,0.00,,,0.00,WUHU216PEETBRO,2013-07-09 08:57:00,
2013-07-09 05:02:00,63.4,62.8,30.04,North,4,0.0,1.9,98,0.00,,,0.00,WUHU216PEETBRO,2013-07-09 09:02:00,
2013-07-09 05:07:00,63.8,63.2,30.04,North,4,0.0,0.0,98,0.00,,,0.00,WUHU216PEETBRO,2013-07-09 09:07:00,
2013-07-09 05:12:00,63.7,63.1,30.05,North,4,0.0,0.0,98,0.00,,,0.00,WUHU216PEETBRO,2013-07-09 09:12:00,
2013-07-09 05:17:00,63.9,63.3,30.05,NNE,15,0.0,0.7,98,0.00,,,0.00,WUHU216PEETBRO,2013-07-09 09:17:00,
2013-07-09 05:22:00,64.2,63.6,30.05,North,352,0.0,0.7,98,0.00,,,0.00,WUHU216PEETBRO,2013-07-09 09:22:00,
2013-07-09 05:27:00,63.9,63.3,30.05,North,359,1.9,2.9,98,0.00,,,0.00,WUHU216PEETBRO,2013-07-09 09:27:00,
2013-07-09 05:32:00,64.1,63.5,30.05,North,8,0.0,3.5,98,0.00,,,0.00,WUHU216PEETBRO,2013-07-09 09:32:00,
2013-07-09 05:37:00,64.2,63.6,30.05,NNW,337,0.0,3.5,98,0.00,,,0.00,WUHU216PEETBRO,2013-07-09 09:37:00,
2013-07-09 05:42:00,63.9,63.3,30.05,NNE,12,0.0,2.1,98,0.00,,,0.00,WUHU216PEETBRO,2013-07-09 09:42:00,
2013-07-09 05:47:00,63.6,63.1,30.05,ESE,107,0.0,2.1,98,0.00,,,0.00,WUHU216PEETBRO,2013-07-09 09:47:00,
2013-07-09 05:52:00,63.4,62.9,30.06,ESE,107,0.0,1.4,98,0.00,,,0.00,WUHU216PEETBRO,2013-07-09 09:52:00,
2013-07-09 05:57:00,64.2,63.7,30.06,ESE,107,0.0,0.0,98,0.00,,,0.00,WUHU216PEETBRO,2013-07-09 09:57:00,
2013-07-09 06:02:00,63.5,63.0,30.06,ESE,107,0.0,0.0,98,0.00,,,0.00,WUHU216PEETBRO,2013-07-09 10:02:00,
2013-07-09 06:07:00,63.8,63.3,30.06,ESE,107,0.0,0.0,98,0.00,,,0.00,WUHU216PEETBRO,2013-07-09 10:07:00,
2013-07-09 06:12:00,64.1,63.6,30.06,ESE,107,0.0,0.0,98,0.00,,,0.00,WUHU216PEETBRO,2013-07-09 10:12:00,
2013-07-09 06:17:00,64.0,63.3,30.06,ESE,107,0.0,0.0,98,0.00,,,0.00,WUHU216PEETBRO,2013-07-09 10:17:00,
2013-07-09 06:22:00,64.2,63.7,30.06,ESE,107,0.0,0.0,98,0.00,,,0.00,WUHU216PEETBRO,2013-07-09 10:22:00,
2013-07-09 06:27:00,63.9,63.4,30.06,ESE,107,0.0,0.0,98,0.00,,,0.00,WUHU216PEETBRO,2013-07-09 10:27:00,
2013-07-09 06:32:00,64.4,63.9,30.06,SW,214,0.0,2.3,98,0.00,,,0.00,WUHU216PEETBRO,2013-07-09 10:32:00,
2013-07-09 06:37:00,64.1,63.5,30.06,NE,40,0.0,2.8,98,0.00,,,0.00,WUHU216PEETBRO,2013-07-09 10:37:00,
2013-07-09 06:42:00,64.4,63.8,30.07,NE,40,0.0,2.8,98,0.00,,,0.00,WUHU216PEETBRO,2013-07-09 10:42:00,
2013-07-09 06:47:00,64.1,63.5,30.07,NE,40,0.0,0.0,98,0.00,,,0.00,WUHU216PEETBRO,2013-07-09 10:47:00,
2013-07-09 06:52:00,64.3,63.7,30.07,NE,40,0.0,0.0,98,0.00,,,0.00,WUHU216PEETBRO,2013-07-09 10:52:00,
2013-07-09 06:57:00,64.7,64.1,30.07,NE,40,1.0,2.9,98,0.00,,,0.00,WUHU216PEETBRO,2013-07-09 10:57:00,
2013-07-09 07:02:00,64.8,64.1,30.07,NNE,21,0.0,2.9,98,0.00,,,0.00,WUHU216PEETBRO,2013-07-09 11:02:00,
2013-07-09 07:07:00,64.7,64.1,30.07,ESE,119,0.7,3.2,98,0.00,,,0.00,WUHU216PEETBRO,2013-07-09 11:07:00,
2013-07-09 07:12:00,64.9,64.3,30.07,NE,37,0.0,3.2,98,0.00,,,0.00,WUHU216PEETBRO,2013-07-09 11:12:00,
2013-07-09 07:17:00,64.9,64.2,30.07,NE,37,0.0,3.0,98,0.00,,,0.00,WUHU216PEETBRO,2013-07-09 11:17:00,
2013-07-09 07:22:00,65.1,64.4,30.07,NNE,22,0.0,3.5,98,0.00,,,0.00,WUHU216PEETBRO,2013-07-09 11:22:00,
2013-07-09 07:27:00,65.5,64.8,30.07,East,90,0.0,3.5,98,0.00,,,0.00,WUHU216PEETBRO,2013-07-09 11:27:00,
2013-07-09 07:32:00,64.8,64.1,30.07,NNE,25,0.4,3.5,98,0.00,,,0.00,WUHU216PEETBRO,2013-07-09 11:32:00,
2013-07-09 07:37:00,65.5,64.7,30.08,East,84,0.0,2.4,98,0.00,,,0.00,WUHU216PEETBRO,2013-07-09 11:37:00,
2013-07-09 07:42:00,65.4,64.6,30.07,NE,52,1.6,2.7,97,0.00,,,0.00,WUHU216PEETBRO,2013-07-09 11:42:00,
2013-07-09 07:47:00,65.2,64.3,30.07,North,2,0.0,2.7,97,0.00,,,0.00,WUHU216PEETBRO,2013-07-09 11:47:00,
2013-07-09 07:52:00,64.9,64.1,30.08,North,2,0.0,2.3,97,0.00,,,0.00,WUHU216PEETBRO,2013-07-09 11:52:00,
2013-07-09 07:57:00,64.9,64.2,30.08,North,2,0.0,0.0,98,0.01,,,0.01,WUHU216PEETBRO,2013-07-09 11:57:00,
2013-07-09 08:02:00,64.9,64.2,30.08,North,2,0.0,0.0,98,0.01,,,0.01,WUHU216PEETBRO,2013-07-09 12:02:00,
2013-07-09 08:07:00,65.2,64.5,30.08,North,2,0.0,0.0,98,0.01,,,0.01,WUHU216PEETBRO,2013-07-09 12:07:00,
2013-07-09 08:12:00,66.1,65.4,30.08,North,2,0.0,0.3,98,0.01,,,0.01,WUHU216PEETBRO,2013-07-09 12:12:00,
2013-07-09 08:17:00,66.3,65.5,30.08,North,2,0.0,0.3,97,0.01,,,0.01,WUHU216PEETBRO,2013-07-09 12:17:00,
2013-07-09 08:22:00,66.8,66.0,30.08,SSE,160,2.6,2.6,97,0.01,,,0.01,WUHU216PEETBRO,2013-07-09 12:22:00,
2013-07-09 08:27:00,66.6,65.7,30.08,South,176,0.0,2.7,97,0.01,,,0.01,WUHU216PEETBRO,2013-07-09 12:27:00,
2013-07-09 08:32:00,67.2,66.2,30.08,ENE,66,0.2,4.0,97,0.01,,,0.01,WUHU216PEETBRO,2013-07-09 12:32:00,
2013-07-09 08:37:00,66.9,65.6,30.08,ESE,109,0.0,4.0,96,0.01,,,0.01,WUHU216PEETBRO,2013-07-09 12:37:00,
2013-07-09 08:42:00,67.7,66.5,30.08,South,179,0.9,2.7,96,0.01,,,0.01,WUHU216PEETBRO,2013-07-09 12:42:00,
2013-07-09 08:47:00,67.1,65.8,30.08,NNE,26,0.2,2.9,96,0.01,,,0.01,WUHU216PEETBRO,2013-07-09 12:47:00,
2013-07-09 08:52:00,67.1,65.8,30.08,NE,53,0.7,2.9,96,0.01,,,0.01,WUHU216PEETBRO,2013-07-09 12:52:00,
2013-07-09 08:57:00,67.4,66.1,30.08,SE,132,1.7,2.9,96,0.00,,,0.01,WUHU216PEETBRO,2013-07-09 12:57:00,
2013-07-09 09:02:00,67.9,66.5,30.08,ESE,118,1.8,4.2,96,0.00,,,0.01,WUHU216PEETBRO,2013-07-09 13:02:00,
2013-07-09 09:07:00,68.0,66.6,30.08,ENE,77,0.0,4.2,96,0.00,,,0.01,WUHU216PEETBRO,2013-07-09 13:07:00,
2013-07-09 09:12:00,68.4,67.0,30.08,East,83,3.1,5.7,95,0.00,,,0.01,WUHU216PEETBRO,2013-07-09 13:12:00,
2013-07-09 09:17:00,67.9,66.3,30.08,ESE,112,3.4,5.7,95,0.00,,,0.01,WUHU216PEETBRO,2013-07-09 13:17:00,
2013-07-09 09:22:00,68.4,66.5,30.08,ESE,121,3.7,6.0,94,0.00,,,0.01,WUHU216PEETBRO,2013-07-09 13:22:00,
2013-07-09 09:27:00,68.2,66.4,30.08,ENE,63,0.5,6.0,94,0.00,,,0.01,WUHU216PEETBRO,2013-07-09 13:27:00,
2013-07-09 09:32:00,68.4,66.6,30.08,NNE,30,1.7,4.8,94,0.00,,,0.01,WUHU216PEETBRO,2013-07-09 13:32:00,
2013-07-09 09:37:00,68.7,66.9,30.08,NW,323,1.8,6.2,94,0.00,,,0.01,WUHU216PEETBRO,2013-07-09 13:37:00,
2013-07-09 09:42:00,68.6,66.7,30.08,NE,43,0.9,6.2,94,0.00,,,0.01,WUHU216PEETBRO,2013-07-09 13:42:00,
2013-07-09 09:47:00,68.5,66.8,30.08,East,95,3.5,4.3,94,0.00,,,0.01,WUHU216PEETBRO,2013-07-09 13:47:00,
2013-07-09 09:52:00,69.0,67.2,30.08,NNE,29,0.9,4.3,94,0.00,,,0.01,WUHU216PEETBRO,2013-07-09 13:52:00,
2013-07-09 09:57:00,68.6,66.5,30.08,East,95,2.2,5.7,93,0.00,,,0.01,WUHU216PEETBRO,2013-07-09 13:57:00,
2013-07-09 10:02:00,69.2,67.1,30.08,ENE,78,0.4,5.7,93,0.00,,,0.01,WUHU216PEETBRO,2013-07-09 14:02:00,
2013-07-09 10:07:00,69.0,66.9,30.08,SSE,156,2.4,4.5,93,0.00,,,0.01,WUHU216PEETBRO,2013-07-09 14:07:00,
2013-07-09 10:13:00,69.6,67.5,30.08,East,98,1.6,4.5,93,0.00,,,0.01,WUHU216PEETBRO,2013-07-09 14:13:00,
2013-07-09 10:17:00,68.9,67.0,30.08,ENE,76,0.0,2.6,94,0.00,,,0.01,WUHU216PEETBRO,2013-07-09 14:17:00,
2013-07-09 10:22:00,68.8,66.9,30.08,ENE,76,0.0,2.4,94,0.00,,,0.01,WUHU216PEETBRO,2013-07-09 14:22:00,
2013-07-09 10:27:00,69.0,67.1,30.08,South,186,2.8,2.8,94,0.00,,,0.01,WUHU216PEETBRO,2013-07-09 14:27:00,
2013-07-09 10:33:00,69.4,67.6,30.09,ENE,78,2.2,4.1,94,0.00,,,0.01,WUHU216PEETBRO,2013-07-09 14:33:00,
2013-07-09 10:38:00,68.9,67.1,30.09,SSE,149,1.1,4.1,94,0.00,,,0.01,WUHU216PEETBRO,2013-07-09 14:38:00,
2013-07-09 10:43:00,68.9,67.3,30.09,ESE,105,0.6,2.7,95,0.00,,,0.01,WUHU216PEETBRO,2013-07-09 14:43:00,
2013-07-09 10:48:00,68.4,66.9,30.08,West,262,0.0,3.9,95,0.00,,,0.01,WUHU216PEETBRO,2013-07-09 14:48:00,
2013-07-09 10:53:00,68.7,67.2,30.09,SE,138,3.3,3.9,95,0.00,,,0.01,WUHU216PEETBRO,2013-07-09 14:53:00,
2013-07-09 10:58:00,68.7,67.2,30.09,SSE,153,0.9,4.8,95,0.00,,,0.01,WUHU216PEETBRO,2013-07-09 14:58:00,
2013-07-09 11:03:00,69.3,67.8,30.09,SSE,152,2.2,5.5,95,0.00,,,0.01,WUHU216PEETBRO,2013-07-09 15:03:00,
2013-07-09 11:08:00,69.3,67.8,30.09,SE,135,3.5,5.5,95,0.00,,,0.01,WUHU216PEETBRO,2013-07-09 15:08:00,
2013-07-09 11:12:00,68.9,67.0,30.09,East,95,1.8,5.4,94,0.00,,,0.01,WUHU216PEETBRO,2013-07-09 15:12:00,
2013-07-09 11:18:00,69.5,67.6,30.08,East,100,1.2,5.4,94,0.00,,,0.01,WUHU216PEETBRO,2013-07-09 15:18:00,
2013-07-09 11:23:00,69.3,67.4,30.08,SSW,204,0.0,5.2,94,0.00,,,0.01,WUHU216PEETBRO,2013-07-09 15:23:00,
2013-07-09 11:28:00,69.4,67.4,30.08,SE,126,2.4,6.6,94,0.00,,,0.01,WUHU216PEETBRO,2013-07-09 15:28:00,
2013-07-09 11:33:00,69.9,67.7,30.08,SSE,156,4.5,6.6,93,0.00,,,0.01,WUHU216PEETBRO,2013-07-09 15:33:00,
2013-07-09 11:38:00,69.5,67.3,30.08,SE,146,1.7,5.9,93,0.00,,,0.01,WUHU216PEETBRO,2013-07-09 15:38:00,
2013-07-09 11:43:00,70.2,67.9,30.08,SE,135,4.2,5.7,92,0.00,,,0.01,WUHU216PEETBRO,2013-07-09 15:43:00,
2013-07-09 11:48:00,70.4,67.8,30.08,ESE,102,4.0,6.5,92,0.00,,,0.01,WUHU216PEETBRO,2013-07-09 15:48:00,
2013-07-09 11:53:00,70.3,67.6,30.08,East,98,0.4,6.5,91,0.00,,,0.01,WUHU216PEETBRO,2013-07-09 15:53:00,
2013-07-09 11:58:00,70.6,68.0,30.08,East,98,0.0,5.5,92,0.00,,,0.01,WUHU216PEETBRO,2013-07-09 15:58:00,
2013-07-09 12:03:00,71.0,68.4,30.08,North,349,0.7,2.6,92,0.00,,,0.01,WUHU216PEETBRO,2013-07-09 16:03:00,
2013-07-09 12:08:00,70.5,67.8,30.08,ESE,121,3.4,4.3,91,0.00,,,0.01,WUHU216PEETBRO,2013-07-09 16:08:00,
2013-07-09 12:13:00,70.3,67.5,30.08,ESE,121,3.8,5.8,91,0.00,,,0.01,WUHU216PEETBRO,2013-07-09 16:13:00,
2013-07-09 12:18:00,70.5,67.8,30.08,SSE,159,0.5,5.8,91,0.00,,,0.01,WUHU216PEETBRO,2013-07-09 16:18:00,
2013-07-09 12:23:00,70.5,67.8,30.07,ESE,115,0.7,4.2,91,0.00,,,0.01,WUHU216PEETBRO,2013-07-09 16:23:00,
2013-07-09 12:28:00,70.9,68.3,30.08,West,273,0.0,3.1,92,0.00,,,0.01,WUHU216PEETBRO,2013-07-09 16:28:00,
2013-07-09 12:33:00,71.0,68.3,30.07,West,276,0.0,3.1,91,0.00,,,0.01,WUHU216PEETBRO,2013-07-09 16:33:00,
2013-07-09 12:38:00,71.5,68.5,30.07,West,276,0.0,2.4,90,0.00,,,0.01,WUHU216PEETBRO,2013-07-09 16:38:00,
2013-07-09 12:43:00,71.8,69.0,30.07,ESE,107,0.7,3.5,91,0.00,,,0.01,WUHU216PEETBRO,2013-07-09 16:43:00,
2013-07-09 12:48:00,71.2,68.4,30.07,SE,143,1.9,5.3,91,0.00,,,0.01,WUHU216PEETBRO,2013-07-09 16:48:00,
2013-07-09 12:53:00,71.1,67.9,30.07,SW,218,0.0,5.3,90,0.00,,,0.01,WUHU216PEETBRO,2013-07-09 16:53:00,
2013-07-09 12:58:00,71.7,68.8,30.07,East,80,1.8,4.8,91,0.00,,,0.01,WUHU216PEETBRO,2013-07-09 16:58:00,
2013-07-09 13:03:00,70.9,68.2,30.08,East,101,3.0,4.8,91,0.00,,,0.01,WUHU216PEETBRO,2013-07-09 17:03:00,
2013-07-09 13:08:00,70.9,68.1,30.08,NNE,13,0.2,3.6,91,0.00,,,0.01,WUHU216PEETBRO,2013-07-09 17:08:00,
2013-07-09 13:13:00,71.3,68.5,30.08,ENE,61,1.4,2.5,91,0.00,,,0.01,WUHU216PEETBRO,2013-07-09 17:13:00,
2013-07-09 13:18:00,71.1,68.3,30.07,SSE,152,1.7,2.3,91,0.00,,,0.01,WUHU216PEETBRO,2013-07-09 17:18:00,
2013-07-09 13:23:00,71.4,68.6,30.08,South,180,3.0,4.0,91,0.00,,,0.01,WUHU216PEETBRO,2013-07-09 17:23:00,
2013-07-09 13:28:00,71.4,68.6,30.07,East,98,0.0,4.0,91,0.00,,,0.01,WUHU216PEETBRO,2013-07-09 17:28:00,
2013-07-09 13:33:00,71.7,68.9,30.07,SE,145,0.0,2.6,91,0.00,,,0.01,WUHU216PEETBRO,2013-07-09 17:33:00,
2013-07-09 13:38:00,71.5,68.5,30.07,West,262,0.0,2.6,90,0.00,,,0.01,WUHU216PEETBRO,2013-07-09 17:38:00,
2013-07-09 13:43:00,71.3,68.6,30.07,West,279,0.2,2.3,91,0.00,,,0.01,WUHU216PEETBRO,2013-07-09 17:43:00,
2013-07-09 13:48:00,71.6,68.8,30.07,WNW,283,0.0,2.8,91,0.00,,,0.01,WUHU216PEETBRO,2013-07-09 17:48:00,
2013-07-09 13:53:00,71.5,68.8,30.07,WNW,287,0.0,3.0,91,0.00,,,0.01,WUHU216PEETBRO,2013-07-09 17:53:00,
2013-07-09 13:58:00,71.1,68.5,30.07,WNW,301,0.0,4.3,92,0.00,,,0.01,WUHU216PEETBRO,2013-07-09 17:58:00,
2013-07-09 14:03:00,71.7,68.9,30.07,East,93,3.0,4.7,91,0.00,,,0.01,WUHU216PEETBRO,2013-07-09 18:03:00,
2013-07-09 14:08:00,71.7,68.9,30.07,East,85,0.0,5.3,91,0.00,,,0.01,WUHU216PEETBRO,2013-07-09 18:08:00,
2013-07-09 14:13:00,71.7,68.6,30.07,SE,136,0.6,5.3,90,0.00,,,0.01,WUHU216PEETBRO,2013-07-09 18:13:00,
2013-07-09 14:18:00,71.2,68.3,30.07,WSW,245,2.5,4.1,91,0.00,,,0.01,WUHU216PEETBRO,2013-07-09 18:18:00,
2013-07-09 14:23:00,70.5,67.9,30.06,SW,215,0.0,4.1,92,0.00,,,0.01,WUHU216PEETBRO,2013-07-09 18:23:00,
2013-07-09 14:28:00,71.1,68.3,30.06,SSE,150,0.0,4.4,91,0.00,,,0.01,WUHU216PEETBRO,2013-07-09 18:28:00,
2013-07-09 14:33:00,71.6,69.0,30.06,West,276,0.6,4.4,92,0.00,,,0.01,WUHU216PEETBRO,2013-07-09 18:33:00,
2013-07-09 14:38:00,71.0,68.2,30.06,SW,227,0.0,2.8,91,0.00,,,0.01,WUHU216PEETBRO,2013-07-09 18:38:00,
2013-07-09 14:43:00,71.2,68.4,30.06,SSW,201,0.0,2.9,91,0.00,,,0.01,WUHU216PEETBRO,2013-07-09 18:43:00,
2013-07-09 14:48:00,71.4,68.3,30.06,East,88,0.0,2.9,90,0.00,,,0.01,WUHU216PEETBRO,2013-07-09 18:48:00,
2013-07-09 14:53:00,71.0,68.0,30.06,SSE,153,1.9,4.6,90,0.00,,,0.01,WUHU216PEETBRO,2013-07-09 18:53:00,
2013-07-09 14:58:00,71.3,68.4,30.06,WNW,282,0.0,4.6,91,0.00,,,0.01,WUHU216PEETBRO,2013-07-09 18:58:00,
2013-07-09 15:03:00,71.4,68.6,30.06,ENE,78,0.0,3.6,91,0.00,,,0.01,WUHU216PEETBRO,2013-07-09 19:03:00,
2013-07-09 15:08:00,70.8,67.7,30.06,SSE,153,1.9,3.9,90,0.00,,,0.01,WUHU216PEETBRO,2013-07-09 19:08:00,
2013-07-09 15:13:00,71.5,68.4,30.06,ESE,118,0.0,3.9,90,0.00,,,0.01,WUHU216PEETBRO,2013-07-09 19:13:00,
2013-07-09 15:18:00,71.1,68.1,30.05,ESE,118,0.0,3.5,90,0.00,,,0.01,WUHU216PEETBRO,2013-07-09 19:18:00,
2013-07-09 15:23:00,72.0,69.1,30.05,ESE,118,0.0,0.0,91,0.00,,,0.01,WUHU216PEETBRO,2013-07-09 19:23:00,
2013-07-09 15:28:00,71.8,68.8,30.05,West,280,0.0,2.1,90,0.00,,,0.01,WUHU216PEETBRO,2013-07-09 19:28:00,
2013-07-09 15:33:00,71.9,68.6,30.06,East,85,0.0,4.7,89,0.00,,,0.01,WUHU216PEETBRO,2013-07-09 19:33:00,
2013-07-09 15:38:00,71.7,68.1,30.06,SE,142,0.0,5.0,89,0.00,,,0.01,WUHU216PEETBRO,2013-07-09 19:38:00,
2013-07-09 15:43:00,72.3,68.7,30.05,South,173,1.5,5.2,89,0.00,,,0.01,WUHU216PEETBRO,2013-07-09 19:43:00,
2013-07-09 15:48:00,72.2,68.5,30.06,NW,306,0.0,5.2,88,0.00,,,0.01,WUHU216PEETBRO,2013-07-09 19:48:00,
2013-07-09 15:53:00,72.1,68.6,30.06,WSW,242,0.0,5.2,89,0.00,,,0.01,WUHU216PEETBRO,2013-07-09 19:53:00,
2013-07-09 15:58:00,71.8,68.2,30.06,East,101,0.0,3.3,88,0.00,,,0.01,WUHU216PEETBRO,2013-07-09 19:58:00,
2013-07-09 16:03:00,71.7,68.2,30.06,WSW,251,0.0,2.9,89,0.00,,,0.01,WUHU216PEETBRO,2013-07-09 20:03:00,
2013-07-09 16:08:00,71.6,68.4,30.06,NW,304,0.0,2.9,90,0.00,,,0.01,WUHU216PEETBRO,2013-07-09 20:08:00,
2013-07-09 16:13:00,71.4,68.2,30.06,West,279,0.0,2.4,90,0.00,,,0.01,WUHU216PEETBRO,2013-07-09 20:13:00,
2013-07-09 16:18:00,71.6,68.6,30.06,WNW,301,0.0,2.4,90,0.00,,,0.01,WUHU216PEETBRO,2013-07-09 20:18:00,
2013-07-09 16:23:00,70.9,67.8,30.06,WNW,301,0.0,0.9,90,0.00,,,0.01,WUHU216PEETBRO,2013-07-09 20:23:00,
2013-07-09 16:28:00,71.2,68.3,30.06,WNW,301,0.0,0.0,91,0.00,,,0.01,WUHU216PEETBRO,2013-07-09 20:28:00,
2013-07-09 16:33:00,71.3,68.2,30.06,WSW,249,0.0,0.6,90,0.00,,,0.01,WUHU216PEETBRO,2013-07-09 20:33:00,
2013-07-09 16:38:00,70.7,67.6,30.06,SSE,165,0.0,3.6,90,0.00,,,0.01,WUHU216PEETBRO,2013-07-09 20:38:00,
2013-07-09 16:43:00,71.1,68.1,30.06,WNW,297,0.7,3.6,90,0.00,,,0.01,WUHU216PEETBRO,2013-07-09 20:43:00,
2013-07-09 16:48:00,71.3,67.8,30.06,WSW,255,0.0,1.1,89,0.00,,,0.01,WUHU216PEETBRO,2013-07-09 20:48:00,
2013-07-09 16:53:00,70.9,67.8,30.06,West,276,0.0,3.0,90,0.00,,,0.01,WUHU216PEETBRO,2013-07-09 20:53:00,
2013-07-09 16:58:00,71.5,68.5,30.06,West,276,0.0,3.0,90,0.00,,,0.01,WUHU216PEETBRO,2013-07-09 20:58:00,
2013-07-09 17:03:00,72.0,68.8,30.06,SW,231,0.3,2.1,90,0.00,,,0.01,WUHU216PEETBRO,2013-07-09 21:03:00,
2013-07-09 17:08:00,71.6,68.3,30.06,SW,221,0.0,2.1,89,0.00,,,0.01,WUHU216PEETBRO,2013-07-09 21:08:00,
2013-07-09 17:13:00,71.3,68.1,30.06,South,177,0.3,2.9,90,0.00,,,0.01,WUHU216PEETBRO,2013-07-09 21:13:00,
2013-07-09 17:18:00,71.2,67.9,30.06,SE,129,3.4,3.4,89,0.00,,,0.01,WUHU216PEETBRO,2013-07-09 21:18:00,
2013-07-09 17:23:00,71.4,68.1,30.06,South,174,0.4,3.4,90,0.00,,,0.01,WUHU216PEETBRO,2013-07-09 21:23:00,
2013-07-09 17:28:00,71.9,68.3,30.05,WSW,256,1.3,3.9,88,0.00,,,0.01,WUHU216PEETBRO,2013-07-09 21:28:00,
2013-07-09 17:33:00,71.5,68.2,30.05,SSE,150,0.4,3.9,89,0.00,,,0.01,WUHU216PEETBRO,2013-07-09 21:33:00,
2013-07-09 17:38:00,72.0,68.4,30.06,SE,138,6.2,6.2,88,0.00,,,0.01,WUHU216PEETBRO,2013-07-09 21:38:00,
2013-07-09 17:43:00,71.5,67.9,30.06,SSE,167,5.0,6.2,88,0.00,,,0.01,WUHU216PEETBRO,2013-07-09 21:43:00,
2013-07-09 17:48:00,72.0,68.3,30.05,ESE,112,0.0,6.2,88,0.00,,,0.01,WUHU216PEETBRO,2013-07-09 21:48:00,
2013-07-09 17:53:00,71.1,67.5,30.05,ENE,76,0.3,6.1,88,0.00,,,0.01,WUHU216PEETBRO,2013-07-09 21:53:00,
2013-07-09 17:58:00,71.8,68.2,30.05,SE,133,1.0,5.9,89,0.00,,,0.01,WUHU216PEETBRO,2013-07-09 21:58:00,
2013-07-09 18:03:00,71.4,67.8,30.06,ESE,111,0.7,5.5,88,0.00,,,0.01,WUHU216PEETBRO,2013-07-09 22:03:00,
2013-07-09 18:08:00,71.3,67.7,30.06,West,259,0.0,5.5,89,0.00,,,0.01,WUHU216PEETBRO,2013-07-09 22:08:00,
2013-07-09 18:13:00,70.9,67.0,30.05,South,174,0.0,3.1,88,0.00,,,0.01,WUHU216PEETBRO,2013-07-09 22:13:00,
2013-07-09 18:18:00,70.5,67.0,30.05,WSW,251,0.6,2.8,89,0.00,,,0.01,WUHU216PEETBRO,2013-07-09 22:18:00,
2013-07-09 18:23:00,70.3,67.0,30.05,ENE,73,0.0,2.8,89,0.00,,,0.01,WUHU216PEETBRO,2013-07-09 22:23:00,
2013-07-09 18:28:00,70.5,67.2,30.05,SSE,156,1.4,3.9,89,0.00,,,0.01,WUHU216PEETBRO,2013-07-09 22:28:00,
2013-07-09 18:33:00,70.1,66.8,30.05,ESE,111,2.4,3.9,89,0.00,,,0.01,WUHU216PEETBRO,2013-07-09 22:33:00,
2013-07-09 18:38:00,70.0,66.8,30.05,SE,129,2.4,4.0,90,0.00,,,0.01,WUHU216PEETBRO,2013-07-09 22:38:00,
2013-07-09 18:43:00,70.1,67.0,30.05,SE,131,2.2,4.5,90,0.00,,,0.01,WUHU216PEETBRO,2013-07-09 22:43:00,
2013-07-09 18:48:00,70.5,67.5,30.04,ESE,115,0.5,4.5,90,0.00,,,0.01,WUHU216PEETBRO,2013-07-09 22:48:00,
2013-07-09 18:53:00,70.3,67.3,30.04,East,90,0.0,4.5,90,0.00,,,0.01,WUHU216PEETBRO,2013-07-09 22:53:00,
2013-07-09 18:58:00,70.5,67.6,30.04,NE,52,0.3,4.5,91,0.00,,,0.01,WUHU216PEETBRO,2013-07-09 22:58:00,
2013-07-09 19:03:00,70.3,67.3,30.04,NE,39,0.3,4.5,90,0.00,,,0.01,WUHU216PEETBRO,2013-07-09 23:03:00,
2013-07-09 19:08:00,70.3,67.5,30.04,ENE,61,0.0,6.4,91,0.00,,,0.01,WUHU216PEETBRO,2013-07-09 23:08:00,
2013-07-09 19:13:00,70.0,67.2,30.04,SE,128,3.5,6.4,91,0.00,,,0.01,WUHU216PEETBRO,2013-07-09 23:13:00,
2013-07-09 19:18:00,70.0,67.2,30.04,SE,124,0.4,4.6,91,0.00,,,0.01,WUHU216PEETBRO,2013-07-09 23:18:00,
2013-07-09 19:23:00,69.8,67.1,30.04,NW,316,0.0,4.0,91,0.00,,,0.01,WUHU216PEETBRO,2013-07-09 23:23:00,
2013-07-09 19:28:00,69.5,66.9,30.04,ENE,74,2.0,2.4,91,0.00,,,0.01,WUHU216PEETBRO,2013-07-09 23:28:00,
2013-07-09 19:33:00,69.7,67.0,30.04,NNE,22,0.0,2.4,91,0.00,,,0.01,WUHU216PEETBRO,2013-07-09 23:33:00,
2013-07-09 19:38:00,69.5,66.7,30.04,ESE,117,1.2,4.1,91,0.00,,,0.01,WUHU216PEETBRO,2013-07-09 23:38:00,
2013-07-09 19:44:00,69.5,66.7,30.04,SSE,165,2.2,4.1,91,0.00,,,0.01,WUHU216PEETBRO,2013-07-09 23:44:00,
2013-07-09 19:49:00,69.2,66.5,30.04,SE,125,0.0,3.5,91,0.00,,,0.01,WUHU216PEETBRO,2013-07-09 23:49:00,
2013-07-09 19:54:00,68.4,65.8,30.05,SE,125,0.0,3.2,92,0.00,,,0.01,WUHU216PEETBRO,2013-07-09 23:54:00,
2013-07-09 19:59:00,68.5,66.1,30.05,ESE,119,0.5,1.2,92,0.00,,,0.01,WUHU216PEETBRO,2013-07-09 23:59:00,
2013-07-09 20:04:00,68.3,66.1,30.04,SE,142,1.2,2.1,93,0.00,,,0.01,WUHU216PEETBRO,2013-07-10 00:04:00,
2013-07-09 20:09:00,68.5,66.4,30.04,SE,139,0.0,2.1,93,0.00,,,0.01,WUHU216PEETBRO,2013-07-10 00:09:00,
2013-07-09 20:14:00,68.5,66.5,30.05,SE,139,0.0,1.2,94,0.00,,,0.01,WUHU216PEETBRO,2013-07-10 00:14:00,
2013-07-09 20:19:00,68.6,66.7,30.04,SSE,149,0.0,1.5,94,0.00,,,0.01,WUHU216PEETBRO,2013-07-10 00:19:00,
2013-07-09 20:24:00,68.2,66.4,30.05,SSE,149,0.0,1.5,94,0.00,,,0.01,WUHU216PEETBRO,2013-07-10 00:24:00,
2013-07-09 20:29:00,67.8,66.2,30.05,SSE,149,0.0,0.0,95,0.00,,,0.01,WUHU216PEETBRO,2013-07-10 00:29:00,
2013-07-09 20:34:00,68.4,66.8,30.05,SSE,149,0.0,0.0,95,0.00,,,0.01,WUHU216PEETBRO,2013-07-10 00:34:00,
2013-07-09 20:39:00,68.4,66.9,30.05,SSE,149,0.0,0.0,95,0.00,,,0.01,WUHU216PEETBRO,2013-07-10 00:39:00,
2013-07-09 20:44:00,67.7,66.2,30.04,SSW,193,1.4,3.0,95,0.00,,,0.01,WUHU216PEETBRO,2013-07-10 00:44:00,
2013-07-09 20:49:00,67.2,65.7,30.04,SE,138,0.0,3.0,95,0.00,,,0.01,WUHU216PEETBRO,2013-07-10 00:49:00,
2013-07-09 20:54:00,68.0,66.7,30.04,East,97,0.0,2.9,96,0.00,,,0.01,WUHU216PEETBRO,2013-07-10 00:54:00,
2013-07-09 20:59:00,67.4,66.0,30.05,South,183,1.4,2.9,96,0.00,,,0.01,WUHU216PEETBRO,2013-07-10 00:59:00,
2013-07-09 21:04:00,67.7,66.5,30.05,SE,129,0.0,2.1,96,0.00,,,0.01,WUHU216PEETBRO,2013-07-10 01:04:00,
2013-07-09 21:09:00,67.1,65.9,30.05,SE,129,0.0,2.1,96,0.00,,,0.01,WUHU216PEETBRO,2013-07-10 01:09:00,
2013-07-09 21:14:00,67.3,66.2,30.05,South,177,1.8,2.9,96,0.00,,,0.01,WUHU216PEETBRO,2013-07-10 01:14:00,
2013-07-09 21:19:00,66.7,65.6,30.05,SE,124,0.5,2.9,96,0.00,,,0.01,WUHU216PEETBRO,2013-07-10 01:19:00,
2013-07-09 21:24:00,65.9,64.8,30.04,SE,124,0.0,2.9,96,0.00,,,0.01,WUHU216PEETBRO,2013-07-10 01:24:00,
2013-07-09 21:29:00,66.4,65.3,30.04,SSE,153,0.7,2.5,97,0.00,,,0.01,WUHU216PEETBRO,2013-07-10 01:29:00,
2013-07-09 21:34:00,66.3,65.2,30.05,SSE,153,0.0,2.5,96,0.00,,,0.01,WUHU216PEETBRO,2013-07-10 01:34:00,
2013-07-09 21:39:00,66.0,64.9,30.05,SSE,153,0.0,1.2,97,0.00,,,0.01,WUHU216PEETBRO,2013-07-10 01:39:00,
2013-07-09 21:44:00,65.8,64.8,30.05,SSE,153,0.0,0.0,97,0.00,,,0.01,WUHU216PEETBRO,2013-07-10 01:44:00,
2013-07-09 21:49:00,66.8,65.8,30.05,SSE,153,0.0,0.0,97,0.00,,,0.01,WUHU216PEETBRO,2013-07-10 01:49:00,
2013-07-09 21:54:00,66.0,65.0,30.05,SSE,153,0.0,0.0,97,0.00,,,0.01,WUHU216PEETBRO,2013-07-10 01:54:00,
2013-07-09 21:59:00,65.4,64.4,30.05,SSE,153,0.0,0.0,97,0.00,,,0.01,WUHU216PEETBRO,2013-07-10 01:59:00,
2013-07-09 22:04:00,65.1,64.1,30.05,SSE,153,0.0,0.0,97,0.00,,,0.01,WUHU216PEETBRO,2013-07-10 02:04:00,
2013-07-09 22:09:00,65.3,64.4,30.06,SSE,153,0.0,0.0,97,0.00,,,0.01,WUHU216PEETBRO,2013-07-10 02:09:00,
2013-07-09 22:14:00,65.7,64.8,30.06,SSE,153,0.0,0.0,97,0.00,,,0.01,WUHU216PEETBRO,2013-07-10 02:14:00,
2013-07-09 22:19:00,64.7,63.8,30.06,SSE,153,0.0,0.0,97,0.00,,,0.01,WUHU216PEETBRO,2013-07-10 02:19:00,
2013-07-09 22:24:00,64.7,63.9,30.06,SSE,153,0.0,0.0,97,0.00,,,0.01,WUHU216PEETBRO,2013-07-10 02:24:00,
2013-07-09 22:29:00,64.4,63.6,30.06,SSE,153,0.0,0.0,97,0.00,,,0.01,WUHU216PEETBRO,2013-07-10 02:29:00,
2013-07-09 22:34:00,64.1,63.3,30.06,SSE,153,0.0,0.0,97,0.00,,,0.01,WUHU216PEETBRO,2013-07-10 02:34:00,
2013-07-09 22:39:00,65.8,65.0,30.06,SSE,153,0.0,0.0,98,0.00,,,0.01,WUHU216PEETBRO,2013-07-10 02:39:00,
2013-07-09 22:44:00,65.5,64.7,30.06,SSE,153,0.0,0.0,98,0.00,,,0.01,WUHU216PEETBRO,2013-07-10 02:44:00,
2013-07-09 22:49:00,65.2,64.4,30.06,SSE,153,0.0,0.0,97,0.00,,,0.01,WUHU216PEETBRO,2013-07-10 02:49:00,
2013-07-09 22:54:00,65.4,64.6,30.06,SSE,153,0.0,0.0,97,0.00,,,0.01,WUHU216PEETBRO,2013-07-10 02:54:00,
2013-07-09 22:59:00,65.0,64.2,30.06,East,87,1.2,4.7,97,0.00,,,0.01,WUHU216PEETBRO,2013-07-10 02:59:00,
2013-07-09 23:04:00,65.7,64.8,30.06,East,94,3.4,4.7,97,0.00,,,0.01,WUHU216PEETBRO,2013-07-10 03:04:00,
2013-07-09 23:09:00,65.4,64.5,30.06,NNE,23,0.0,4.5,97,0.00,,,0.01,WUHU216PEETBRO,2013-07-10 03:09:00,
2013-07-09 23:14:00,65.4,64.5,30.06,SE,146,1.1,4.1,97,0.00,,,0.01,WUHU216PEETBRO,2013-07-10 03:14:00,
2013-07-09 23:19:00,65.2,64.3,30.06,ESE,121,0.0,3.2,97,0.00,,,0.01,WUHU216PEETBRO,2013-07-10 03:19:00,
2013-07-09 23:24:00,65.6,64.7,30.06,ESE,102,1.5,3.4,97,0.00,,,0.01,WUHU216PEETBRO,2013-07-10 03:24:00,
2013-07-09 23:29:00,65.8,64.8,30.06,ENE,63,0.0,3.4,97,0.00,,,0.01,WUHU216PEETBRO,2013-07-10 03:29:00,
2013-07-09 23:34:00,65.0,64.0,30.06,ENE,63,0.0,3.1,97,0.00,,,0.01,WUHU216PEETBRO,2013-07-10 03:34:00,
2013-07-09 23:39:00,65.3,64.3,30.06,ENE,63,0.0,0.0,97,0.00,,,0.01,WUHU216PEETBRO,2013-07-10 03:39:00,
2013-07-09 23:44:00,65.9,64.9,30.06,ENE,63,0.0,0.0,97,0.00,,,0.01,WUHU216PEETBRO,2013-07-10 03:44:00,
2013-07-09 23:49:00,65.1,64.1,30.06,ENE,63,0.0,0.0,97,0.00,,,0.01,WUHU216PEETBRO,2013-07-10 03:49:00,
2013-07-09 23:54:00,65.3,64.3,30.06,SE,141,0.0,1.7,97,0.00,,,0.01,WUHU216PEETBRO,2013-07-10 03:54:00,
2013-07-09 23:59:00,65.1,64.1,30.06,West,263,0.0,1.7,97,0.00,,,0.01,WUHU216PEETBRO,2013-07-10 03:59:00,